FLOCK 3P-85 (41983 NORAD) Tracking and Keplerian Element Data

This shows tracking and keplerian element data for the satellite.

Feedback or suggestion? Click here.




ElementValue
Catalog41983
NameFLOCK 3P-85
Epoch Orbit5531
Epoch Day45.81021883
Epoch Year2018
RAAN111.5023
Inclination97.4683
Eccentricity0.0009794
Argument of Perigee73.7759
Mean Anonmoly286.4555
Mean Motion15.23986868
Decay Rate2.662E-05
L11 41983U 17008AM 18045.81021883 .00002662 00000-0 11283-3 0 9994
L22 41983 97.4683 111.5023 0009794 73.7759 286.4555 15.23986868 55319

Live tracking and technical data element details for FLOCK 3P-85 (NORAD 41983). FLOCK 3P-85 can be tracked NOW for your location showing map with azimuth and elevation plus other details from your city location.

Track the satellite on the map from your city or location and see movement details for azimuth, elevation, latitude, longitude, range, height, and movement on the map or in text.







IsCatalogInMostPopularTable: catalog: 41983, numindb: 133
Update: records affected: 1



GetName: 41983 FLOCK 3P-85

Hit Count: updated at: Mon, 19 Nov 2018 13:30:41 GMT